FW3048 Weather Reports


time (UTC)temp
C
wind
direction
speed
KPH
gust
KPH
rain 1hr
cm
rain 24hr
cm
rain mn
cm
humidity
%
barometer
mb
20260507163033 13 137 4.8 11.3 0.00 0.00 0.00 40 1015.7
20260507153033 14 144 3.2 9.7 0.00 0.00 0.00 38 1015.9
20260507143032 15 243 3.2 14.5 0.00 0.00 0.00 40 1016.3
20260507133032 14 99 3.2 17.7 0.00 0.00 0.00 42 1016.9
20260507123031 13 118 3.2 16.1 0.00 0.00 0.00 46 1016.9
20260507113030 11 141 1.6 11.3 0.00 0.00 0.00 51 1017.4
20260507103031 10 123 4.8 11.3 0.00 0.00 0.00 53 1017.6
20260507093031 8 147 3.2 11.3 0.00 0.00 0.00 56 1017.5
20260507073031 6 199 1.6 9.7 0.00 0.00 0.00 62 1017.4
20260507063032 6 240 0.0 8.0 0.00 0.00 0.00 64 1017.2
20260507053032 5 213 0.0 6.4 0.00 0.00 0.00 64 1017.0
20260507043031 5 186 0.0 4.8 0.00 0.00 0.00 65 1017.0
20260507033031 5 237 0.0 6.4 0.00 0.00 0.00 63 1017.3
20260507023032 5 120 1.6 9.7 0.00 0.00 0.00 62 1017.0
20260507013032 5 202 3.2 14.5 0.00 0.00 0.00 62 1017.2
20260507003031 5 192 0.0 11.3 0.00 0.00 0.00 62 1017.2
20260506233031 6 180 0.0 8.0 0.00 0.00 0.00 61 1017.3
20260506193031 8 131 1.6 8.0 0.00 0.00 0.00 56 1016.3
20260506183031 10 144 0.0 4.8 0.00 0.00 0.00 51 1016.1
20260506173031 12 212 1.6 6.4 0.00 0.00 0.00 45 1016.0